Regional Weather Roundup
Issued by NWS

Home | Current Version | Previous Version | Text Only | Print | Product List | Glossary On
Versions: 1 2 3 4 5 6 7 8 9 10 11 12 13 14 15 16 17 18 19 20 21 22 23 24 25 26 27 28 29 30 31 32 33 34 35 36 37 38 39 40 41 42 43 44 45 46 47 48 49 50
103
ASUS43 KFSD 032102
RWRSD

WEATHER ROUNDUP FOR SOUTH DAKOTA
NATIONAL WEATHER SERVICE SIOUX FALLS SD
400 PM CDT TUE MAY 03 2016

NOTE: "FAIR" INDICATES FEW OR NO CLOUDS BELOW 12,000 FEET WITH NO
SIGNIFICANT WEATHER AND/OR OBSTRUCTIONS TO VISIBILITY.


SDZ001>005-009-010-012>017-032200-
NORTHWEST AND NORTH CENTRAL SOUTH DAKOTA

CITY           SKY/WX    TMP DP  RH WIND       PRES   REMARKS
BUFFALO          N/A     76  33  21 N16       30.01F
FAITH            N/A     75  35  23 N13       30.02F
MOBRIDGE       SUNNY     79  41  25 N18G30    29.92F
$$

SDZ012>016-024>037-041>051-057-063-072>074-032200-
SOUTHWEST AND SOUTH CENTRAL SOUTH DAKOTA

CITY           SKY/WX    TMP DP  RH WIND       PRES   REMARKS
RAPID CTY ARPT SUNNY     72  39  30 N17G26    30.08S
PIERRE         SUNNY     75  39  27 NW22      29.95F
CUSTER         SUNNY     67  29  24 VRB5      30.16S
ELLSWORTH AFB  SUNNY     72  40  30 N17G24    30.07F
PHILIP         SUNNY     75  40  28 NW15G25   30.01F
PINE RIDGE     SUNNY     71  34  25 N16G22    30.09S
WINNER         FAIR      72  42  34 NW18G25   30.00F
$$

SDZ004>011-016>023-039-040-032200-
NORTHEAST SOUTH DAKOTA

CITY           SKY/WX    TMP DP  RH WIND       PRES   REMARKS
ABERDEEN       SUNNY     77  40  26 N29G37    29.87S
WATERTOWN      MOSUNNY   76  37  24 NW28G37   29.82F
BROOKINGS      MOSUNNY   71  42  35 NW16G24   29.84F
SISSETON         N/A     74  25  16 N30G39    29.82R
$$

SDZ017-020-022-023-036>040-048>070-032200-
SOUTHEAST SOUTH DAKOTA

CITY           SKY/WX    TMP DP  RH WIND       PRES   REMARKS
SIOUX FALLS    PTSUNNY   70  41  34 NW18G30   29.88F
HURON          SUNNY     75  42  30 NW18G28   29.87F
MITCHELL       SUNNY     72  47  40 NW20G26   29.91F
YANKTON        MOSUNNY   68  43  40 NW20G30   29.93F
$$

ABBREVIATIONS USED IN REMARKS
   TC - TEMPERATURE IN CELSIUS
  WCI - WIND CHILL INDEX
   HX - HEAT INDEX
  VSB - VISIBILITY





USA.gov is the U.S. government's official web portal to all federal, state and local government web resources and services.